OpenBCM V1.13 (Linux)

Packet Radio Mailbox

DB0FHN

[JN59NK Nuernberg]

 Login: GUEST





  
IMPORT > KEPS     27.10.24 04:24l 393 Lines 18866 Bytes #999 (0) @ AMSAT
BID : ORB24301.1
Read: GUEST DJ6UX
Subj: 2Line Orbital Elements 24301.AMSAT
Path: DB0FHN<DB0FFL<OE2XZR<OE6XPE<DB0ERF<DK0WUE<DK0WUE<VK5RSV<GB7RJJ<K7EK<
      KA1VSC<WG3K
Sent: 241027/0109Z 9563@WG3K.#SMD.MD.USA.NOAM LinBPQ6.0.24


QST de W1STR

AMSAT Orbital Elements for Amateur Satellites in TLE Format
From Orbital Analysis Office
New England Sci-Tech STEM Education Center
Natick, MA October 27, 2024
To all radio amateurs


These element sets describe the orbits of various satellites 
in use by the amateur radio community. For details see:
www.amsat.org/keplerian-elements-formats/

A daily update of element sets is available at:
www.amsat.org/tle/daily-bulletin.txt
or without bulletin text:
www.amsat.org/tle/dailytle.txt


AO-07
1 07530U 74089B   24300.59037240 -.00000008  00000-0  23967-3 0  9991
2 07530 101.9888 296.5147 0012054 192.4359 291.0777 12.53681460285500
UO-11
1 14781U 84021B   24300.89658021  .00005201  00000-0  57502-3 0  9994
2 14781  97.7227 266.4168 0008441  15.0466 345.1001 14.87787251189067
AO-27
1 22825U 93061C   24300.74978723  .00000427  00000-0  18086-3 0  9993
2 22825  98.7722 354.7995 0009286  58.4259 301.7828 14.30627582621697
FO-29
1 24278U 96046B   24300.35913590  .00000035  00000-0  72459-4 0  9991
2 24278  98.5831 217.8268 0349489 208.3596 149.8124 13.53218544392170
NOAA-15
1 25338U 98030A   24300.80596401  .00000590  00000-0  26152-3 0  9996
2 25338  98.5593 325.1407 0009296 303.5290  56.5002 14.26763893376207
GO-32
1 25397U 98043D   24300.48144311  .00000417  00000-0  20091-3 0  9992
2 25397  98.9409 269.2825 0002109 115.9197 244.2199 14.24164347366109
ISS
1 25544U 98067A   24300.77333859  .00031897  00000-0  55457-3 0  9991
2 25544  51.6411  23.6074 0009286 110.2917  35.6593 15.50468560478952
NO-44
1 26931U 01043C   24300.50290406  .00000664  00000-0  28105-3 0  9999
2 26931  67.0524 352.2564 0007551 264.1629  95.8613 14.31453460204742
SO-50
1 27607U 02058C   24300.40353420  .00003862  00000-0  52274-3 0  9999
2 27607  64.5546 177.9305 0029509  42.9133 317.4266 14.80074164175730
CO-55
1 27844U 03031E   24300.53998931  .00001098  00000-0  50103-3 0  9998
2 27844  98.6795 305.7808 0010695 119.9215 240.3027 14.23572712106471
CO-57
1 27848U 03031J   24299.96501144  .00000901  00000-0  41941-3 0  9994
2 27848  98.6825 305.3803 0010329 136.5710 223.6283 14.22969002106131
RS-22
1 27939U 03042A   24300.90580418  .00004500  00000-0  74153-3 0  9995
2 27939  98.3059  99.4096 0011786   9.4662 145.1903 14.70968872127637
NOAA-18
1 28654U 05018A   24300.81760561  .00000589  00000-0  33662-3 0  9997
2 28654  98.8650  16.6372 0014862  53.2100 307.0433 14.13387183  1853
CO-58
1 28895U 05043F   24300.35579188  .00005225  00000-0  89741-3 0  9995
2 28895  98.2196  76.6215 0014349 304.6726  55.3126 14.69036730 13707
CO-65
1 32785U 08021C   24300.87567710  .00015765  00000-0  12803-2 0  9996
2 32785  97.7745 265.4583 0007873 248.7538 111.2844 14.99680326895260
AAUSAT2
1 32788U 08021F   24300.37251801  .00063573  00000-0  22093-2 0  9997
2 32788  97.6036 282.0319 0008832  79.5800 280.6434 15.29467419898286
CO-66
1 32791U 08021J   24300.89155130  .00029922  00000-0  18951-2 0  9994
2 32791  97.7047 271.8443 0003281 186.0838 174.0351 15.08902841896423
RS-30
1 32953U 08025A   24300.81797562  .00000021  00000-0  82183-4 0  9990
2 32953  82.5079   7.6117 0019945 174.8926 185.2361 12.43151314745481
PRISM
1 33493U 09002B   24300.13284909  .00077079  00000-0  24680-2 0  9990
2 33493  98.1858 359.9933 0009807 155.0657 205.1058 15.32044971858993
NOAA-19
1 33591U 09005A   24300.85881692  .00000526  00000-0  30557-3 0  9997
2 33591  99.0316 357.9593 0012834 281.6041  78.3690 14.13169416810224
SRMSAT
1 37841U 11058D   24300.56934837  .00000798  00000-0  29105-3 0  9996
2 37841  19.9716  82.0633 0011832  98.8650 335.9560 14.11253296673147
RS-40
1 38735U 12041C   24300.49723017  .00000059  00000-0  35906-3 0  9996
2 38735  82.4723  88.0063 0016619 293.3956  66.5375 12.42619044555481
ZACUBE-1
1 39417U 13066B   24300.83963809  .00013278  00000-0  12821-2 0  9992
2 39417  97.7500 254.1801 0050652  84.2413 276.4578 14.91988788591192
Delfi-N3xt
1 39428U 13066N   24300.31617917  .00020107  00000-0  23464-2 0  9997
2 39428  97.8329 215.4441 0096559  23.8481 336.7161 14.81852967585485
GOMX-1
1 39430U 13066Q   24300.88920373  .00007118  00000-0  11494-2 0  9992
2 39430  97.7097 167.2704 0136264 193.0560 166.7105 14.65609313582327
LO-74
1 39440U 13066AA  24300.82368253  .00009426  00000-0  10450-2 0  9995
2 39440  97.8232 241.9139 0065678 201.6471 158.1965 14.85911284589061
AO-73
1 39444U 13066AE  24300.84902365  .00021878  00000-0  19197-2 0  9991
2 39444  97.7355 257.7215 0047809  63.5491 297.0624 14.95736656590351
DTUSAT-2
1 40030U 14033W   24300.37174216  .00016301  00000-0  12463-2 0  9997
2 40030  98.0246 256.6919 0011889  97.9439 262.3134 15.01956716562368
EO-80
1 40032U 14033Y   24300.40348599  .00016041  00000-0  12243-2 0  9997
2 40032  98.0174 256.6817 0012527  55.3243 304.9159 15.02020326562346
XW-2C
1 40906U 15049H   24300.84427806  .00124347  00000-0  16043-2 0  9993
2 40906  97.4662 322.2952 0006692 158.4541 201.6998 15.58545570504853
XW-2D
1 40907U 15049J   24300.35859771  .00385440  00000-0  15916-2 0  9991
2 40907  97.4511 326.7881 0005416 147.9055 212.2545 15.84902710505177
LILACSAT-2
1 40908U 15049K   24300.80171143  .00023557  00000-0  79387-3 0  9993
2 40908  97.5231 310.8283 0009221 241.2305 118.8010 15.30702201503598
XW-2B
1 40911U 15049N   24300.82337744  .00397914  00000-0  19336-2 0  9998
2 40911  97.4514 327.0428 0005424 150.2640 209.8937 15.81378537505091
IO-86
1 40931U 15052B   24270.29994034  .00002074  00000-0  19195-3 0  9996
2 40931   5.9998 350.0993 0012711  76.7416 283.4129 14.78150863486449
ChubuSat-2
1 41338U 16012B   24300.27529601  .00012256  00000-0  70795-3 0  9997
2 41338  31.0004 265.5545 0009776 117.1285 243.0351 15.11056195477421
ChubuSat-3
1 41339U 16012C   24300.61055450  .00011599  00000-0  68620-3 0  9995
2 41339  31.0068 262.8554 0010036 123.5094 236.6504 15.10180432477443
Horyu-4
1 41340U 16012D   24300.88234536  .00039032  00000-0  16175-2 0  9999
2 41340  31.0004 193.8080 0008757 248.5713 111.3995 15.22681254478192
Lapan A3
1 41603U 16040E   24300.84569130  .00008935  00000-0  33927-3 0  9992
2 41603  97.1419 308.7385 0011674   4.3066 355.8272 15.26981332463307
Pratham
1 41783U 16059A   24300.79941130  .00002910  00000-0  54147-3 0  9993
2 41783  97.8329 313.9819 0031313 325.2806  34.6354 14.65513163431811
CAS-2T
1 41847U 16066G   24300.83027598  .00005861  00000-0  84760-3 0  9992
2 41847  98.4479  11.1410 0351570 140.5399 222.1971 14.42180092418465
CAS-4B
1 42759U 17034B   24300.83202460  .00055113  00000-0  14942-2 0  9993
2 42759  43.0143 198.5241 0012783 171.4344 188.6731 15.36764920407591
CAS-4A
1 42761U 17034D   24300.88548797  .00054291  00000-0  14636-2 0  9993
2 42761  43.0180 196.4415 0013300 181.1689 178.9138 15.36939255407612
D-SAT
1 42794U 17036AF  24300.42391347  .00017203  00000-0  11006-2 0  9998
2 42794  97.4918 277.7963 0106106  62.3019 298.8924 15.04028589400426
TechnoSat
1 42829U 17042E   24300.75486082  .00008556  00000-0  71751-3 0  9996
2 42829  97.3869 114.6629 0011520 354.2522   5.8567 14.98558013396867
AO-91
1 43017U 17073E   24300.55707999  .00016664  00000-0  95501-3 0  9999
2 43017  97.5549 171.5875 0196690 212.8440 146.0434 14.97695590375295
TianYi 6
1 43158U 18008D   24289.57081905  .01911305  30434-2  22393-2 0  9995
2 43158  97.2486 341.2486 0006509 265.8690  94.1850 16.09457699373267
S-Net D
1 43186U 18014G   24300.23570651  .00010783  00000-0  71796-3 0  9996
2 43186  97.5753 199.8788 0007951 286.0358  73.9994 15.07268697368227
S-Net B
1 43187U 18014H   24300.23874214  .00010889  00000-0  72510-3 0  9991
2 43187  97.5761 199.8406 0008566 279.9562  80.0698 15.07259223368220
S-Net A
1 43188U 18014J   24300.30309808  .00010946  00000-0  72862-3 0  9996
2 43188  97.5768 200.0281 0008549 280.3172  79.7091 15.07273914368234
S-Net C
1 43189U 18014K   24300.43992107  .00010972  00000-0  73025-3 0  9992
2 43189  97.5786 200.1367 0010045 270.1426  89.8650 15.07266074366807
Ten-Koh
1 43677U 18084G   24300.70217647  .00007673  00000-0  65674-3 0  9995
2 43677  98.0772  98.3914 0013094 301.6515  58.3428 14.97821804326391
PO-101
1 43678U 18084H   24300.85967417  .00005391  00000-0  48109-3 0  9998
2 43678  98.0851 102.9306 0007939 320.5206  39.5435 14.96380850326608
QO-100
1 43700U 18090A   24300.78132281  .00000142  00000-0  00000+0 0  9999
2 43700   0.0363  75.2451 0001691 176.4998  90.9850  1.00273885 21922
MinXSS-2
1 43758U 18099A   24300.85465168  .00035001  00000-0  18936-2 0  9994
2 43758  97.5383   1.5221 0014248 220.9917 139.0244 15.14480809322677
AO-95
1 43770U 18099N   24300.13157995  .00017485  00000-0  10822-2 0  9997
2 43770  97.5289 355.3892 0011175 275.2882  84.7072 15.09816138322295
RANGE-B
1 43772U 18099Q   24300.04399827  .00031604  00000-0  16299-2 0  9994
2 43772  97.5089 359.4196 0005198 167.2177 192.9189 15.16275077322506
RANGE-A
1 43773U 18099R   24300.88297607  .00015042  00000-0  10635-2 0  9996
2 43773  97.4858 349.9676 0011177 242.1142 117.8953 15.04922665322229
MOVE-II
1 43780U 18099Y   24300.72596101  .00066569  00000-0  24938-2 0  9999
2 43780  97.5038   3.2508 0004700 228.6098 131.4737 15.27008490322919
SNUSat 2
1 43782U 18099AA  24300.10671810  .00016555  00000-0  10666-2 0  9997
2 43782  97.4972 353.7649 0013160 210.2275 149.8196 15.08333934322285
SnugLite
1 43784U 18099AC  24300.40425274  .00016850  00000-0  10368-2 0  9990
2 43784  97.4789 353.3529 0003436 197.6204 162.4907 15.10082463322418
ITASat 1
1 43786U 18099AE  24300.11729843  .00014560  00000-0  96150-3 0  9999
2 43786  97.4932 353.8243 0014950 265.3437  94.6084 15.07431411322275
